Retour au catalogue

DEB KOSMOS-2566

ActifLEO
NORAD 54817·DEBRIS·🇷🇺 Russia
Ce nom de satellite n'a pas encore été confirmé par des sources officielles.

Lancé Nov 30, 2022 depuis Plesetsk Cosmodrome

Loading…

Prochains Passages (prochaines 24 heures)

TLE

PériméSource: Space-Track

Époque: Jun 17, 2026, 14:19 UTC

1 54817U 22163D   26168.59719526 -.00000064  00000-0  79126-5 0  9997
2 54817  67.1394 102.5189 0002956  88.3599 271.7825 13.97477984177542

Suivez DEB KOSMOS-2566 en temps réel avec AllMySat

Download on the App Store